This is the latest recevied weather packets stored in our database for station/object WE1C. If no packets are shown the sender has not sent any weather packets the latest 10 day(s).
| Time | Temp. | Humidity | Pressure | Rain* | Wind** | Luminosity | Snow |
|---|---|---|---|---|---|---|---|
| 1777933302 | 20° C | 35% | 1036.2 hPa | 0 mm | - | 74 W/m² | - |
| 1777933000 | 20° C | 35% | 1036.4 hPa | 0 mm | - | 60 W/m² | - |
| 1777932697 | 20° C | 34% | 1036.3 hPa | 0 mm | - | 49 W/m² | - |
| 1777932393 | 20.56° C | 34% | 1036.3 hPa | 0 mm | - | 71 W/m² | - |
| 1777932091 | 20.56° C | 34% | 1036.7 hPa | 0 mm | - | 80 W/m² | - |
| 1777931787 | 20.56° C | 34% | 1036.1 hPa | 0 mm | - | 88 W/m² | - |
| 1777931485 | 20.56° C | 33% | 1036.2 hPa | 0 mm | - | 107 W/m² | - |
| 1777931180 | 20.56° C | 34% | 1036.2 hPa | 0 mm | - | 82 W/m² | - |
| 1777930877 | 20.56° C | 33% | 1036.2 hPa | 0 mm | - | 94 W/m² | - |
| 1777930573 | 20.56° C | 33% | 1036.2 hPa | 0 mm | - | 137 W/m² | - |
| 1777930270 | 20.56° C | 34% | 1036.3 hPa | 0 mm | - | 133 W/m² | - |
| 1777929966 | 20.56° C | 34% | 1036.3 hPa | 0 mm | - | 111 W/m² | - |
| 1777929664 | 20.56° C | 33% | 1036.3 hPa | 0 mm | - | 83 W/m² | - |
| 1777929361 | 20.56° C | 34% | 1036.4 hPa | 0 mm | - | 89 W/m² | - |
| 1777929057 | 20° C | 35% | 1036.6 hPa | 0 mm | - | 120 W/m² | - |
| 1777928755 | 20° C | 34% | 1036.3 hPa | 0 mm | - | 95 W/m² | - |
| 1777928451 | 20.56° C | 34% | 1036.4 hPa | 0 mm | - | 97 W/m² | - |
| 1777928149 | 20° C | 34% | 1036.3 hPa | 0 mm | - | 126 W/m² | - |
| 1777927847 | 20° C | 35% | 1036.3 hPa | 0 mm | - | 96 W/m² | - |
| 1777927544 | 20° C | 34% | 1036.3 hPa | 0 mm | - | 121 W/m² | - |
| 1777927243 | 20.56° C | 33% | 1036.1 hPa | 0 mm | - | 112 W/m² | - |
| 1777926941 | 21.11° C | 32% | 1036.4 hPa | 0 mm | - | 151 W/m² | - |
| 1777926638 | 21.67° C | 32% | 1036.1 hPa | 0 mm | - | 269 W/m² | - |
| 1777926333 | 21.11° C | 31% | 1036.2 hPa | 0 mm | - | 350 W/m² | - |
| 1777926031 | 21.11° C | 31% | 1036.4 hPa | 0 mm | - | 363 W/m² | - |
* Rain latest hour (hover to see other rain measurements)
** Current wind speed in m/s (hover to see current wind gust speed)